Home   Weather   Lüdenscheid   Past weeks

Flag for Germany Past Weather in Lüdenscheid, North Rhine-Westphalia, Germany — Yesterday and Last 2 Weeks

Now
48 °F

Clear.


Feels Like: 44 °F
Forecast: 35 / 44 °F
Wind: 10 mph from Southwest

Location: Dortmund / Wickede

Current Time: Dec 10, 2016 at 12:33:01 am

Latest Report: Dec 9, 2016 at 9:50 pm


Visibility: 10 mi

Pressure: 30.30 "Hg

Humidity: 71%

Dew Point: 39 °F

Location of LüdenscheidLocation

Past Weather in Lüdenscheid — Graph

°F

Lüdenscheid Temperature Yesterday

Maximum temperature yesterday: 52 °F (at 5:50 pm)
Minimum temperature yesterday: 45 °F (at 5:20 am)
Average temperature yesterday: 48 °F

High & Low Weather Summary for the Past Weeks

 TemperatureHumidityPressure
High52 °F (Dec 9, 5:50 pm)93% (Nov 26, 5:20 am)30.57 "Hg (Nov 26, 5:20 am)
Low21 °F (Nov 29, 6:50 am)41% (Nov 30, 12:20 pm)30.07 "Hg (Nov 26, 1:20 pm)
Average36 °F75%30.30 "Hg
* Reported Nov 24 9:20 pm — Dec 9 9:50 pm, Lüdenscheid, Weather by CustomWeather, © 2016

Note: Actual official high and low records may vary slightly from our data, if they occured in-between our weather recording intervals... More about our weather records

Advertising

Lüdenscheid Weather History for the Previous 24 Hours

Scroll right to see more
 ConditionsComfort  
Time TempWeatherWind HumidityBarometerVisibility
9:50 pm
Fri, Dec 9
48 °FClear.10 mph71%30.30 "Hg10 mi
9:20 pm48 °FClear.8 mph71%30.30 "Hg10 mi
8:50 pm48 °FClear.13 mph71%30.30 "Hg10 mi
8:20 pm50 °FClear.14 mph71%30.30 "Hg10 mi
7:50 pm50 °FClear.13 mph67%30.30 "Hg10 mi
7:20 pm50 °FPassing clouds.12 mph71%30.30 "HgN/A
6:50 pm50 °FPassing clouds.12 mph71%30.30 "HgN/A
6:20 pm52 °FPassing clouds.13 mph67%30.30 "HgN/A
5:50 pm52 °FPassing clouds.14 mph67%30.30 "HgN/A
5:20 pm50 °FPassing clouds.15 mph71%30.33 "HgN/A
4:50 pm50 °FPassing clouds.15 mph71%30.33 "HgN/A
4:20 pm50 °FPassing clouds.10 mph71%30.33 "HgN/A
3:50 pm50 °FPartly sunny.12 mph76%30.33 "HgN/A
3:20 pm50 °FPartly sunny.10 mph76%30.33 "HgN/A
2:50 pm50 °FPartly sunny.10 mph82%30.33 "HgN/A
2:20 pm50 °FPartly sunny.10 mph82%30.33 "HgN/A
1:50 pm50 °FPartly sunny.12 mph82%30.33 "Hg4 mi
1:20 pm48 °FFog.9 mph87%30.36 "Hg2 mi
12:50 pm46 °FFog.9 mph87%30.36 "Hg2 mi
12:20 pm46 °FFog.12 mph87%30.36 "Hg3 mi
11:50 am46 °FPartly sunny.13 mph82%30.36 "Hg4 mi
11:20 am46 °FPartly sunny.12 mph87%30.36 "Hg4 mi
10:50 am46 °FPartly sunny.12 mph82%30.36 "Hg4 mi
10:20 am46 °FPartly sunny.13 mph82%30.36 "Hg5 mi
9:50 am46 °FPartly sunny.9 mph82%30.36 "Hg6 mi
9:20 am46 °FPartly sunny.13 mph82%30.33 "Hg6 mi
8:50 am46 °FPartly sunny.12 mph82%30.33 "Hg5 mi
8:20 am46 °FPassing clouds.10 mph82%30.33 "Hg5 mi
7:50 am46 °FPassing clouds.8 mph82%30.33 "Hg6 mi
7:20 am46 °FPassing clouds.9 mph82%30.33 "Hg6 mi
6:50 am45 °FPassing clouds.9 mph87%30.33 "Hg6 mi
6:20 am45 °FPassing clouds.10 mph87%30.33 "Hg5 mi
5:20 am45 °FPassing clouds.12 mph87%30.33 "Hg4 mi
Weather by CustomWeather, © 2016

See weather overviewHow to use our weather pages